Weather History for KADF - June, 2014

Change the Weather History Date:

Monday, June 9, 2014

  Actual Average Record
Temperature  
Mean Temperature 72 °F -  
Max Temperature 75 °F - - ()
Min Temperature 68 °F - - ()
Cooling Degree Days 6    
Growing Degree Days 22 (Base 50)    
Moisture  
Dew Point 70 °F    
Average Humidity 96    
Maximum Humidity 100    
Minimum Humidity 82    
Precipitation  
Precipitation 1.33 in - - ()
Sea Level Pressure  
Sea Level Pressure 29.83 in    
Wind  
Wind Speed 5 mph (SSE)    
Max Wind Speed 9 mph    
Max Gust Speed -    
Visibility 7 miles    
Events Rain , Thunderstorm    
T = Trace of Precipitation, MM = Missing Value Source: NWS Daily Summary

Daily Weather History Graph

Daily Weather History Graph

Search for Another Location

Airport or City:

Trip Planner

Search our weather history database for the weather conditions in past years. The results will help you decide how hot, cold, wet, or windy it might be!

Date:

Astronomy

Jun. 09, 2014 Rise Set
Actual Time 6:00 AM CDT 8:22 PM CDT
Civil Twilight 5:31 AM CDT 8:52 PM CDT
Nautical Twilight 4:55 AM CDT 9:27 PM CDT
Astronomical Twilight 4:16 AM CDT 10:07 PM CDT
Moon 4:52 PM CDT (6/9) 3:18 AM CDT (6/9)
Length of Visible Light 15h 20m
Length of Day
14h 22m
Waxing Gibbous, 85% of the Moon is Illuminated
Jun 9
Waxing Gibbous
Jun 12
Full
Jun 19
Last Quarter
Jun 27
New
Jul 5
First Quarter

Hourly Weather History & Observations

Time (CDT) Temp. Dew Point Humidity Pressure Visibility Wind Dir Wind Speed Gust Speed Precip Events Conditions
12:17 AM 71.6 °F 71.6 °F 100% 29.88 in 9.0 mi ENE 3.5 mph - N/A Thunderstorm Thunderstorm
12:29 AM 71.6 °F 69.8 °F 94% 29.88 in 7.0 mi NNE 8.1 mph - 0.00 in Rain Light Rain
12:56 AM 70.9 °F 68.9 °F 93% 29.90 in 10.0 mi NE 8.1 mph - 0.00 in   Mostly Cloudy
1:03 AM 71.6 °F 69.8 °F 94% 29.86 in 10.0 mi NE 5.8 mph - N/A Thunderstorm Mostly Cloudy
1:14 AM 71.6 °F 69.8 °F 94% 29.87 in 10.0 mi NNE 8.1 mph - N/A Thunderstorm Thunderstorm
1:40 AM 69.8 °F 69.8 °F 100% 29.85 in 10.0 mi ENE 4.6 mph - 0.01 in Thunderstorm Overcast
1:56 AM 70.0 °F 68.9 °F 96% 29.88 in 10.0 mi NE 5.8 mph - 0.01 in Thunderstorm Mostly Cloudy
2:08 AM 69.8 °F 69.8 °F 100% 29.84 in 10.0 mi NE 5.8 mph - N/A Thunderstorm Mostly Cloudy
2:11 AM 69.8 °F 69.8 °F 100% 29.84 in 10.0 mi NNE 4.6 mph - N/A   Mostly Cloudy
2:20 AM 69.8 °F 69.8 °F 100% 29.84 in 10.0 mi NE 4.6 mph - N/A Thunderstorm Mostly Cloudy
2:47 AM 69.8 °F 69.8 °F 100% 29.84 in 10.0 mi ENE 4.6 mph - 0.03 in Thunderstorm Overcast
2:56 AM 70.0 °F 68.9 °F 96% 29.88 in 10.0 mi ENE 3.5 mph - 0.03 in Thunderstorm Mostly Cloudy
3:27 AM 69.8 °F 69.8 °F 100% 29.82 in 10.0 mi Variable 3.5 mph - N/A   Mostly Cloudy
3:56 AM 68.9 °F 68.9 °F 100% 29.86 in 10.0 mi NNE 4.6 mph - 0.00 in Rain Light Rain
4:29 AM 69.8 °F 69.8 °F 100% 29.86 in 4.0 mi Calm Calm - 0.04 in Rain , Thunderstorm Rain
4:42 AM 69.8 °F 69.8 °F 100% 29.85 in 2.5 mi Calm Calm - 0.09 in Rain Rain
4:56 AM 68.9 °F 68.9 °F 100% 29.89 in 4.0 mi Calm Calm - 0.13 in Rain Rain
5:27 AM 69.8 °F 69.8 °F 100% 29.85 in 2.5 mi North 3.5 mph - 0.09 in Rain , Thunderstorm Heavy Thunderstorms and Rain
5:42 AM 69.8 °F 69.8 °F 100% 29.85 in 4.0 mi Calm Calm - 0.15 in Rain Rain
5:56 AM 68.9 °F 68.9 °F 100% 29.88 in 2.5 mi Calm Calm - 0.19 in Rain Heavy Rain
6:20 AM 69.8 °F 69.8 °F 100% 29.82 in 3.0 mi Variable 3.5 mph - 0.10 in Rain Rain
6:56 AM 68.9 °F 68.9 °F 100% 29.84 in 10.0 mi Calm Calm - 0.11 in   Overcast
7:40 AM 69.8 °F 69.8 °F 100% 29.82 in 10.0 mi SSE 4.6 mph - N/A   Overcast
7:56 AM 70.0 °F 70.0 °F 100% 29.85 in 10.0 mi Variable 4.6 mph - N/A   Overcast
8:56 AM 70.9 °F 70.9 °F 100% 29.86 in 10.0 mi Variable 3.5 mph - N/A   Overcast
9:36 AM 73.4 °F 71.6 °F 94% 29.82 in 10.0 mi Calm Calm - N/A   Mostly Cloudy
9:56 AM 72.9 °F 70.9 °F 93% 29.86 in 10.0 mi Calm Calm - N/A   Mostly Cloudy
10:29 AM 73.4 °F 71.6 °F 94% 29.82 in 1.5 mi Variable 4.6 mph - 0.05 in Rain Heavy Rain
10:35 AM 71.6 °F 71.6 °F 100% 29.82 in 1.0 mi SSE 9.2 mph - 0.09 in Rain Light Rain
10:43 AM 71.6 °F 71.6 °F 100% 29.82 in 1.0 mi Variable 6.9 mph - 0.12 in Rain , Thunderstorm Rain
10:47 AM 71.6 °F 71.6 °F 100% 29.81 in 1.5 mi SSE 9.2 mph - 0.13 in Rain , Thunderstorm Rain
10:56 AM 70.9 °F 70.9 °F 100% 29.85 in 2.0 mi SSE 5.8 mph - 0.16 in Rain Rain
11:00 AM 71.6 °F 71.6 °F 100% 29.81 in 2.0 mi Variable 4.6 mph - 0.01 in Rain , Thunderstorm Rain
11:02 AM 71.6 °F 71.6 °F 100% 29.82 in 2.0 mi SSE 5.8 mph - 0.02 in Rain , Thunderstorm Rain
11:21 AM 71.6 °F 71.6 °F 100% 29.84 in 1.0 mi SSW 6.9 mph - 0.23 in Rain , Thunderstorm Heavy Thunderstorms and Rain
11:36 AM 71.6 °F 69.8 °F 94% 29.81 in 0.8 mi South 6.9 mph - 0.48 in Rain , Thunderstorm Heavy Thunderstorms and Rain
11:41 AM 71.6 °F 69.8 °F 94% 29.82 in 1.2 mi SSE 5.8 mph - 0.50 in Rain , Thunderstorm Thunderstorms and Rain
11:43 AM 71.6 °F 69.8 °F 94% 29.82 in 2.0 mi South 5.8 mph - 0.50 in Rain , Thunderstorm Light Thunderstorms and Rain
11:56 AM 70.0 °F 70.0 °F 100% 29.87 in 2.5 mi South 8.1 mph - 0.53 in Rain , Thunderstorm Rain
12:00 PM 69.8 °F 69.8 °F 100% 29.83 in 3.0 mi South 8.1 mph - 0.01 in Rain Rain
12:04 PM 69.8 °F 69.8 °F 100% 29.83 in 2.5 mi South 8.1 mph - 0.02 in Rain , Thunderstorm Light Thunderstorms and Rain
12:21 PM 69.8 °F 69.8 °F 100% 29.82 in 1.2 mi SSW 6.9 mph - 0.09 in Rain Heavy Rain
12:32 PM 69.8 °F 69.8 °F 100% 29.82 in 2.0 mi SSE 6.9 mph - 0.13 in Rain Rain
12:42 PM 69.8 °F 69.8 °F 100% 29.81 in 1.8 mi SE 8.1 mph - 0.16 in Rain Rain
12:56 PM 68.9 °F 68.9 °F 100% 29.83 in 5.0 mi Variable 4.6 mph - 0.17 in Rain Light Rain
2:56 PM 72.0 °F 68.9 °F 90% 29.77 in 10.0 mi South 6.9 mph - 0.00 in   Scattered Clouds
4:56 PM 75.9 °F 70.0 °F 82% 29.79 in 10.0 mi SSW 6.9 mph - N/A   Scattered Clouds
5:07 PM 75.2 °F 69.8 °F 83% 29.75 in 10.0 mi SSW 8.1 mph - N/A   Mostly Cloudy
5:30 PM 75.2 °F 69.8 °F 83% 29.75 in 10.0 mi SSW 9.2 mph - N/A   Mostly Cloudy
5:56 PM 75.9 °F 70.0 °F 82% 29.78 in 10.0 mi South 9.2 mph - N/A   Mostly Cloudy
6:56 PM 74.8 °F 70.0 °F 85% 29.79 in 10.0 mi SSW 6.9 mph - N/A   Mostly Cloudy
7:16 PM 75.2 °F 69.8 °F 83% 29.75 in 10.0 mi SSW 6.9 mph - N/A   Mostly Cloudy
7:32 PM 75.2 °F 69.8 °F 83% 29.75 in 10.0 mi SSW 8.1 mph - N/A   Scattered Clouds
7:56 PM 73.9 °F 70.0 °F 87% 29.79 in 10.0 mi SSW 6.9 mph - N/A   Clear
8:56 PM 72.9 °F 70.0 °F 91% 29.78 in 10.0 mi South 6.9 mph - N/A   Clear
9:29 PM 71.6 °F 69.8 °F 94% 29.75 in 10.0 mi SSW 8.1 mph - N/A   Mostly Cloudy
9:56 PM 72.0 °F 70.0 °F 93% 29.79 in 10.0 mi SSW 5.8 mph - N/A   Mostly Cloudy
10:16 PM 71.6 °F 69.8 °F 94% 29.75 in 10.0 mi Variable 3.5 mph - N/A   Scattered Clouds
10:56 PM 70.9 °F 70.0 °F 97% 29.81 in 10.0 mi SW 5.8 mph - N/A   Clear
11:56 PM 70.9 °F 68.9 °F 93% 29.81 in 10.0 mi South 3.5 mph - N/A   Clear